Weather History for KDMO - February, 2013

Change the Weather History Date:

Tuesday, February 5, 2013

  Actual Average Record
Temperature  
Mean Temperature 41 °F 34 °F  
Max Temperature 57 °F 43 °F 66 °F (1946)
Min Temperature 24 °F 25 °F -13 °F (1979)
Degree Days  
Heating Degree Days 24 31  
Month to date heating degree days 151 158  
Since 1 July heating degree days 2751 2973  
Cooling Degree Days 0 0  
Month to date cooling degree days 0 0  
Year to date cooling degree days 1 0  
Moisture  
Dew Point 28 °F    
Average Humidity 66    
Maximum Humidity 92    
Minimum Humidity 40    
Precipitation  
Precipitation 0.00 in 0.07 in 1.02 in (2008)
Month to date precipitation T 0.34  
Year to date precipitation 2.70 2.01  
Sea Level Pressure  
Sea Level Pressure 30.01 in    
Wind  
Wind Speed 7 mph (West)    
Max Wind Speed 18 mph    
Max Gust Speed 24 mph    
Visibility 9 miles    
Events      
T = Trace of Precipitation, MM = Missing Value Source: NWS Daily Summary

Daily Weather History Graph

Daily Weather History Graph

Search for Another Location

Airport or City:

Trip Planner

Search our weather history database for the weather conditions in past years. The results will help you decide how hot, cold, wet, or windy it might be!

Date:

Astronomy

Feb. 05, 2013 Rise Set
Actual Time 7:14 AM CST 5:39 PM CST
Civil Twilight 6:46 AM CST 6:07 PM CST
Nautical Twilight 6:15 AM CST 6:38 PM CST
Astronomical Twilight 5:44 AM CST 7:09 PM CST
Moon 2:55 AM CST (2/5) 12:58 PM CST (2/5)
Length of Visible Light 11h 20m
Length of Day
10h 24m
Waning Crescent, 26% of the Moon is Illuminated
Feb 5
Waning Crescent
Feb 10
New
Feb 17
First Quarter
Feb 25
Full
Mar 4
Last Quarter

Hourly Weather History & Observations

Time (CST) Temp. Windchill Dew Point Humidity Pressure Visibility Wind Dir Wind Speed Gust Speed Precip Events Conditions
12:53 AM 27.0 °F - 23.0 °F 85% 29.98 in 6.0 mi Calm Calm - N/A   Clear
1:53 AM 26.1 °F - 24.1 °F 92% 29.98 in 6.0 mi Calm Calm - N/A   Clear
2:53 AM 25.0 °F 20.7 °F 21.9 °F 88% 29.97 in 5.0 mi SSW 3.5 mph - N/A   Clear
3:53 AM 26.1 °F 18.4 °F 23.0 °F 88% 29.94 in 5.0 mi South 6.9 mph - N/A   Clear
4:53 AM 26.1 °F 20.5 °F 21.9 °F 84% 29.94 in 6.0 mi South 4.6 mph - N/A   Clear
5:53 AM 27.0 °F 23.0 °F 24.1 °F 89% 29.94 in 7.0 mi SSW 3.5 mph - N/A   Clear
6:53 AM 28.9 °F 21.1 °F 25.0 °F 85% 29.94 in 8.0 mi SW 8.1 mph - N/A   Clear
7:53 AM 30.9 °F 20.7 °F 27.0 °F 85% 29.96 in 8.0 mi SW 13.8 mph - N/A   Clear
8:53 AM 34.0 °F 27.2 °F 30.0 °F 85% 29.98 in 8.0 mi West 8.1 mph - N/A   Clear
9:53 AM 39.0 °F 33.4 °F 30.9 °F 73% 29.99 in 10.0 mi West 8.1 mph 18.4 mph N/A   Clear
10:53 AM 45.0 °F 37.9 °F 30.9 °F 58% 29.99 in 10.0 mi West 16.1 mph 24.2 mph N/A   Clear
11:53 AM 48.9 °F - 32.0 °F 52% 29.99 in 10.0 mi West 12.7 mph - N/A   Clear
12:53 PM 53.1 °F - 34.0 °F 48% 29.97 in 10.0 mi West 9.2 mph - N/A   Clear
1:53 PM 55.0 °F - 33.1 °F 43% 29.98 in 10.0 mi West 11.5 mph 19.6 mph N/A   Clear
2:53 PM 57.0 °F - 34.0 °F 42% 29.99 in 10.0 mi WNW 10.4 mph - N/A   Clear
3:53 PM 54.0 °F - 34.0 °F 47% 30.01 in 10.0 mi NW 10.4 mph - N/A   Clear
4:53 PM 53.1 °F - 34.0 °F 48% 30.02 in 10.0 mi NW 8.1 mph - N/A   Clear
5:53 PM 48.0 °F - 32.0 °F 54% 30.04 in 10.0 mi NW 3.5 mph - N/A   Clear
6:53 PM 45.0 °F 41.8 °F 30.9 °F 58% 30.06 in 10.0 mi NNW 5.8 mph - N/A   Clear
7:53 PM 44.1 °F 40.8 °F 28.0 °F 53% 30.08 in 10.0 mi North 5.8 mph - N/A   Clear
8:53 PM 43.0 °F 39.5 °F 27.0 °F 53% 30.11 in 10.0 mi North 5.8 mph - N/A   Clear
9:53 PM 41.0 °F - 28.0 °F 60% 30.13 in 10.0 mi Calm Calm - N/A   Clear
10:53 PM 37.9 °F - 28.0 °F 68% 30.14 in 10.0 mi Calm Calm - N/A   Clear
11:53 PM 35.1 °F 32.2 °F 27.0 °F 72% 30.14 in 10.0 mi East 3.5 mph - N/A   Clear